Weather reports worldwide

Advertisment
Angermünde, Germany (10291): temperature & dewpoint: 10.08.2018 18:00:00 - 16.08.2018 18:00:00 (CEST)Angermünde, Germany (10291): temperature 5cm & temperature -5cm: 10.08.2018 18:00:00 - 16.08.2018 18:00:00 (CEST)Angermünde, Germany (10291): temperature -20cm & temperature -100cm: 10.08.2018 18:00:00 - 16.08.2018 18:00:00 (CEST)Angermünde, Germany (10291): wind speed & gusts: 10.08.2018 18:00:00 - 16.08.2018 18:00:00 (CEST)Angermünde, Germany (10291): wind direction: 10.08.2018 18:00:00 - 16.08.2018 18:00:00 (CEST)Angermünde, Germany (10291): reduced air pressure: 10.08.2018 18:00:00 - 16.08.2018 18:00:00 (CEST)Angermünde, Germany (10291): visibility: 10.08.2018 18:00:00 - 16.08.2018 18:00:00 (CEST)Angermünde, Germany (10291): sunshine duration: 10.08.2018 18:00:00 - 16.08.2018 18:00:00 (CEST)Angermünde, Germany (10291): precipitation: 10.08.2018 18:00:00 - 16.08.2018 18:00:00 (CEST)
Date & Time tt [°C] td [°C] tt 5cm [°C] tt -5cm [°C] tt -20cm [°C] tt -100cm [°C] ff [km/h] ff [kn] fx [km/h] fx [kn] dd ppp [hPa] vv [km] sd [min] rr [mm]
16.08.2018 18:00:00 27,8 11,6 30,0 29,5 24,9 21,2 14 8 25 14 SSE 1015,5 44 60 0,0
16.08.2018 17:00:00 27,9 11,2 31,4 30,2 24,6 21,2 12 7 32 17 SSE 1015,8 45 60 0,0
16.08.2018 16:00:00 28,3 12,6 32,2 30,4 24,1 21,2 9 5 29 16 S 1016,2 44 60 0,0
16.08.2018 15:00:00 27,4 11,9 32,2 30,2 23,5 21,2 14 7 26 14 S 1016,9 50 58 0,0
16.08.2018 14:00:00 26,2 12,5 31,3 29,5 22,9 21,2 9 5 22 12 S 1017,6 50 56 0,0
16.08.2018 13:00:00 25,3 13,7 30,7 28,4 22,2 21,2 12 6 27 14 SSW 1018,2 40 60 0,0
16.08.2018 12:00:00 24,5 13,9 29,7 26,6 21,5 21,2 12 7 22 12 S 1018,7 40 60 0,0
16.08.2018 11:00:00 23,6 12,7 27,6 24,5 21,0 21,2 13 7 20 11 SSW 1019,1 40 60 0,0
16.08.2018 10:00:00 22,0 14,2 25,7 22,3 20,6 21,2 9 5 15 8 S 1019,4 25 60 0,0
16.08.2018 09:00:00 20,5 14,8 22,8 20,2 20,5 21,2 8 5 11 6 S 1019,4 20 60 0,0
16.08.2018 08:00:00 18,0 14,4 19,1 18,4 20,6 21,2 7 4 9 5 S 1019,6 20 60 0,0
16.08.2018 07:00:00 15,4 13,7 14,1 17,7 20,7 21,2 5 3 6 3 S 1019,7 20 17 0,0
16.08.2018 06:00:00 15,0 13,7 12,6 18,0 20,9 21,2 3 2 9 5 S 1019,5 25 0 0,0
16.08.2018 05:00:00 15,4 13,7 14,6 18,2 21,1 21,2 5 3 11 6 SSW 1019,6 13 0 0,0
16.08.2018 04:00:00 15,7 13,7 14,7 18,2 21,3 21,2 6 3 11 6 S 1019,6 20 0 0,0
16.08.2018 03:00:00 15,4 13,5 13,5 18,3 21,6 21,3 9 5 11 6 S 1019,6 25 0 0,0
16.08.2018 02:00:00 14,6 13,9 12,5 18,7 21,9 21,3 3 2 6 4 WSW 1019,7 21 0 0,0
16.08.2018 01:00:00 16,0 14,0 12,7 19,2 22,2 21,3 6 3 10 5 SSW 1019,5 34 0 0,0
16.08.2018 00:00:00 15,8 14,1 13,2 19,8 22,5 21,3 5 3 6 3 S 1019,5 27 0 0,0
15.08.2018 23:00:00 17,0 14,6 13,9 20,5 22,8 21,3 4 2 7 4 W 1019,4 40 0 0,0
15.08.2018 22:00:00 18,3 14,2 14,7 21,5 23,1 21,3 5 3 8 4 W 1019,4 53 0 0,0
15.08.2018 21:00:00 19,8 14,2 18,3 22,6 23,3 21,3 7 4 14 8 WNW 1019,0 43 0 0,0
15.08.2018 20:00:00 21,1 14,1 20,8 23,5 23,4 21,3 10 6 20 11 WNW 1018,4 49 0 0,0
15.08.2018 19:00:00 21,9 13,7 22,1 24,4 23,5 21,3 14 8 21 11 W 1018,3 58 5 0,0
15.08.2018 18:00:00 22,4 14,3 23,5 24,7 23,5 21,3 10 5 20 11 WNW 1018,3 70 1 0,0
15.08.2018 17:00:00 22,4 14,0 23,2 25,6 23,5 21,3 13 7 21 12 W 1018,2 70 2 0,0
15.08.2018 16:00:00 22,4 13,6 23,7 26,1 23,3 21,3 16 9 26 14 WNW 1018,2 70 1 0,0
15.08.2018 15:00:00 21,9 13,3 23,2 26,9 22,9 21,3 19 10 31 17 W 1018,2 60 14 0,0
15.08.2018 14:00:00 23,7 13,4 29,1 27,1 22,4 21,3 16 9 36 19 W 1017,9 60 43 0,0
15.08.2018 13:00:00 22,4 12,7 26,1 25,8 21,8 21,3 20 11 29 16 W 1017,9 50 48 0,0
15.08.2018 12:00:00 21,2 13,2 25,5 23,6 21,5 21,3 17 9 30 16 W 1017,9 50 50 0,0
15.08.2018 11:00:00 20,2 14,7 22,3 21,5 21,3 21,3 18 10 31 17 WNW 1017,7 50 34 0,0
15.08.2018 10:00:00 18,6 15,1 19,4 20,6 21,3 21,3 19 11 29 16 W 1017,0 50 14 0,0
15.08.2018 09:00:00 17,8 15,5 18,3 19,6 21,4 21,3 18 10 29 16 W 1016,3 40 0 0,0
15.08.2018 08:00:00 17,1 15,8 17,0 19,4 21,5 21,3 16 8 24 13 W 1015,9 30 0 0,0
15.08.2018 07:00:00 17,2 15,9 17,2 19,4 21,6 21,4 14 7 24 13 W 1015,2 40 0 0,0
15.08.2018 06:00:00 17,3 16,1 17,1 19,4 21,8 21,4 16 9 24 13 W 1014,6 40 0 0,0
15.08.2018 05:00:00 17,6 16,0 17,1 19,6 22,0 21,4 16 9 26 14 W 1014,2 39 0 0,0
15.08.2018 04:00:00 17,4 16,4 16,9 19,7 22,2 21,4 15 8 32 17 W 1014,0 26 0 0,0
15.08.2018 03:00:00 17,4 16,1 16,7 20,0 22,4 21,4 19 11 32 17 W 1013,6 27 0 0,0
15.08.2018 02:00:00 17,9 16,8 17,1 20,8 22,6 21,4 16 8 24 13 W 1013,5 21 0 1,4
15.08.2018 01:00:00 18,9 16,2 18,7 21,3 22,8 21,4 16 9 27 15 W 1013,3 37 0 0,0
15.08.2018 00:00:00 19,1 16,0 18,9 21,6 23,0 21,4 18 10 31 17 W 1012,7 52 0 0,0
14.08.2018 23:00:00 19,6 15,8 19,3 21,8 23,2 21,4 19 10 29 16 W 1012,1 64 0 0,0
14.08.2018 22:00:00 20,2 16,0 19,7 22,4 23,4 21,4 16 8 29 16 W 1011,8 61 0 0,0
14.08.2018 21:00:00 20,9 15,2 20,3 23,0 23,6 21,4 16 9 29 16 W 1011,1 60 0 0,0
14.08.2018 20:00:00 21,9 14,5 20,9 24,2 23,7 21,4 11 6 26 14 WSW 1010,3 70 42 0,0
14.08.2018 19:00:00 22,8 13,9 23,7 25,2 23,7 21,4 24 13 35 19 WSW 1010,0 29 43 0,0
14.08.2018 18:00:00 22,5 14,3 23,1 25,9 23,6 21,4 12 6 32 17 WSW 1010,0 55 45 0,0
14.08.2018 17:00:00 22,5 13,7 25,4 25,3 23,6 21,4 18 10 31 17 WSW 1009,9 24 16 0,0
14.08.2018 16:00:00 22,2 13,6 22,8 25,4 23,4 21,4 18 10 34 19 WSW 1010,0 58 0 0,0
14.08.2018 15:00:00 22,4 13,2 23,4 26,8 23,1 21,4 23 12 32 17 WSW 1009,9 40 15 0,0
14.08.2018 14:00:00 23,4 13,4 27,9 26,5 22,7 21,4 13 7 34 18 SW 1009,6 40 44 0,0
14.08.2018 13:00:00 21,0 13,9 22,6 24,4 22,5 21,4 18 10 32 17 WSW 1009,8 30 3 0,0
14.08.2018 12:00:00 20,5 13,5 22,3 24,3 22,2 21,4 19 11 33 18 WSW 1009,8 30 20 0,0
14.08.2018 11:00:00 20,5 14,6 24,0 22,7 22,0 21,4 15 8 25 14 WSW 1009,4 30 5 0,0
14.08.2018 10:00:00 19,5 14,3 20,8 22,0 21,9 21,4 15 8 29 16 W 1009,3 30 10 0,0
14.08.2018 09:00:00 19,1 14,7 21,0 21,0 21,9 21,4 15 8 30 16 W 1009,0 30 41 0,0
14.08.2018 08:00:00 17,6 14,8 17,5 20,0 22,0 21,4 16 8 26 14 WSW 1008,6 40 3 0,0
14.08.2018 07:00:00 17,5 14,8 17,0 19,7 22,2 21,4 17 9 26 14 WSW 1008,1 40 0 0,0
14.08.2018 06:00:00 17,1 14,8 15,8 19,9 22,4 21,4 9 5 19 11 WSW 1007,6 40 0 0,0
14.08.2018 05:00:00 17,5 15,0 16,3 20,4 22,7 21,5 9 5 17 9 SSW 1007,4 35 0 0,0
14.08.2018 04:00:00 18,3 15,1 17,4 20,7 22,9 21,5 13 7 17 9 SSW 1007,1 42 0 0,0
14.08.2018 03:00:00 18,7 15,2 17,4 21,1 23,2 21,5 11 6 19 10 S 1007,0 47 0 0,0
14.08.2018 02:00:00 18,5 14,4 16,8 21,6 23,4 21,5 5 3 15 8 SW 1007,0 64 0 0,0
14.08.2018 01:00:00 19,8 14,4 18,3 22,2 23,7 21,5 10 5 14 8 S 1007,1 70 0 0,0
14.08.2018 00:00:00 21,1 13,8 20,0 22,9 23,9 21,5 7 4 15 8 SSW 1006,9 64 0 0,0
13.08.2018 23:00:00 21,6 13,5 20,6 23,4 24,2 21,5 6 3 11 6 SSW 1006,8 58 0 0,0
13.08.2018 22:00:00 21,9 14,1 20,8 24,0 24,4 21,5 6 3 10 5 SW 1006,8 61 0 0,0
13.08.2018 21:00:00 22,9 12,4 21,4 24,7 24,7 21,5 7 4 19 11 W 1006,7 66 0 0,0
13.08.2018 20:00:00 24,7 11,2 24,1 25,7 24,8 21,6 17 9 27 15 W 1006,5 56 0 0,0
13.08.2018 19:00:00 26,6 9,3 25,9 26,7 25,0 21,6 16 9 23 12 W 1006,2 56 0 0,0
13.08.2018 18:00:00 26,5 13,5 26,6 28,0 24,9 21,6 4 2 11 6 SW 1006,1 66 0 0,0
13.08.2018 17:00:00 29,6 7,8 30,5 29,4 24,7 21,6 2 1 11 6 ENE 1006,1 64 17 0,0
13.08.2018 16:00:00 29,5 8,6 30,9 29,7 24,3 21,6 2 1 24 13 WSW 1006,2 69 23 0,0
13.08.2018 15:00:00 29,9 7,1 35,8 30,8 23,7 21,6 9 5 19 10 SSE 1006,7 50 59 0,0
13.08.2018 14:00:00 29,2 7,0 34,3 29,6 23,0 21,6 8 4 23 12 SSW 1007,2 50 55 0,0
13.08.2018 13:00:00 28,7 7,7 34,1 29,0 22,2 21,7 12 6 23 12 E 1007,7 50 60 0,0
13.08.2018 12:00:00 27,7 7,6 32,7 27,1 21,5 21,7 9 5 17 9 ESE 1008,3 45 55 0,0
13.08.2018 11:00:00 26,4 8,5 30,1 24,7 20,9 21,7 8 4 15 8 E 1008,5 40 60 0,0
13.08.2018 10:00:00 22,9 10,1 25,9 22,0 20,5 21,7 6 4 11 6 SE 1009,0 40 60 0,0
13.08.2018 09:00:00 19,8 9,8 21,9 19,5 20,4 21,7 6 3 9 5 ESE 1009,6 40 60 0,0
13.08.2018 08:00:00 17,1 10,0 18,7 17,5 20,5 21,7 2 1 5 3 NNE 1009,8 40 60 0,0
13.08.2018 07:00:00 12,2 10,6 10,6 16,8 20,7 21,7 3 2 4 2 NNE 1009,5 40 17 0,0
13.08.2018 06:00:00 12,1 10,6 9,6 17,3 21,0 21,7 4 2 5 3 N 1009,9 50 0 0,0
13.08.2018 05:00:00 13,1 11,5 11,1 17,8 21,2 21,7 4 2 5 3 NNE 1010,2 25 0 0,0
13.08.2018 04:00:00 13,2 10,4 12,2 18,0 21,5 21,8 0 0 3 1 N 1010,5 36 0 0,0
13.08.2018 03:00:00 13,6 9,7 10,8 18,4 21,8 21,8 0 0 3 1 N 1010,9 47 0 0,0
13.08.2018 02:00:00 13,6 10,8 11,3 18,9 22,2 21,8 0 0 3 2 N 1011,4 34 0 0,0
13.08.2018 01:00:00 14,9 10,1 12,9 19,6 22,5 21,8 2 1 5 3 WNW 1011,9 47 0 0,0
13.08.2018 00:00:00 15,0 9,7 13,2 20,2 22,8 21,8 4 2 6 3 S 1012,3 49 0 0,0
12.08.2018 23:00:00 15,9 12,5 13,5 20,9 23,2 21,9 0 0 4 2 N 1012,5 42 0 0,0
12.08.2018 22:00:00 17,5 11,1 14,7 21,9 23,5 21,9 0 0 6 4 N 1012,8 50 0 0,0
12.08.2018 21:00:00 20,0 9,2 16,6 23,2 23,8 21,9 0 0 9 5 N 1013,1 55 0 0,0
12.08.2018 20:00:00 22,3 7,5 19,7 24,8 23,9 21,9 3 2 11 6 WSW 1013,2 70 38 0,0
12.08.2018 19:00:00 24,6 7,3 25,3 26,3 23,9 21,9 7 4 20 11 WSW 1013,6 70 60 0,0
12.08.2018 18:00:00 24,6 6,1 26,8 27,3 23,7 22,0 14 7 28 15 SW 1014,1 42 60 0,0
12.08.2018 17:00:00 24,7 5,6 27,4 27,4 23,5 22,0 15 8 29 16 W 1014,7 30 39 0,0
12.08.2018 16:00:00 24,5 6,7 28,4 28,2 23,0 22,0 16 9 33 18 SW 1015,5 17 60 0,0
12.08.2018 15:00:00 23,4 7,0 28,0 27,8 22,5 22,0 14 8 34 18 WSW 1016,2 30 60 0,0
12.08.2018 14:00:00 22,6 7,9 26,7 26,3 21,9 22,0 15 8 34 19 SW 1017,0 30 41 0,0
12.08.2018 13:00:00 22,4 9,0 26,8 25,8 21,3 22,0 13 7 32 17 WSW 1017,7 30 53 0,0
12.08.2018 12:00:00 20,7 8,4 23,5 24,4 20,7 22,1 18 10 32 17 WSW 1018,6 30 52 0,0
12.08.2018 11:00:00 19,4 10,1 22,4 22,7 20,2 22,1 14 8 28 15 WSW 1018,9 30 58 0,0
12.08.2018 10:00:00 18,2 10,8 22,3 20,5 19,9 22,1 9 5 19 11 WSW 1019,2 30 60 0,0
12.08.2018 09:00:00 16,2 10,3 18,6 18,2 19,8 22,1 16 9 25 14 WSW 1019,6 30 60 0,0
12.08.2018 08:00:00 14,7 10,2 16,1 16,4 19,8 22,1 9 5 19 10 SW 1019,7 30 60 0,0
12.08.2018 07:00:00 12,6 10,0 11,4 15,5 20,1 22,1 7 4 17 9 SSW 1019,8 40 21 0,0
12.08.2018 06:00:00 12,5 9,9 10,9 15,6 20,3 22,1 9 5 17 9 WSW 1019,7 40 0 0,0
12.08.2018 05:00:00 12,9 9,8 11,2 16,0 20,6 22,2 11 6 19 10 WSW 1019,6 36 0 0,0
12.08.2018 04:00:00 13,2 9,7 11,4 16,3 20,9 22,2 11 6 22 12 WSW 1019,6 38 0 0,0
12.08.2018 03:00:00 13,3 9,8 11,7 16,8 21,2 22,2 14 8 24 13 W 1019,8 36 0 0,0
12.08.2018 02:00:00 14,1 9,8 12,6 17,3 21,5 22,2 16 8 28 15 W 1019,8 35 0 0,0
12.08.2018 01:00:00 14,4 9,5 13,1 17,8 21,9 22,2 19 11 29 16 WSW 1019,9 4,5 0 0,0
12.08.2018 00:00:00 14,5 9,0 13,0 18,3 22,2 22,2 14 7 20 11 WSW 1020,0 5 0 0,0
11.08.2018 23:00:00 14,8 9,0 12,2 19,1 22,6 22,3 9 5 19 10 WSW 1019,9 40 0 0,0
11.08.2018 22:00:00 16,7 8,3 15,5 20,1 22,9 22,3 18 10 26 14 W 1019,8 44 0 0,0
11.08.2018 21:00:00 17,4 8,4 16,1 21,1 23,3 22,3 18 10 42 23 W 1019,3 58 9 0,0
11.08.2018 20:00:00 19,1 7,4 18,7 22,6 23,5 22,3 27 15 43 23 W 1018,7 27 40 0,0
11.08.2018 19:00:00 19,9 6,8 19,6 23,8 23,6 22,3 26 14 51 28 W 1018,3 41 39 0,0
11.08.2018 18:00:00 21,2 6,7 22,7 25,0 23,5 22,4 29 16 50 27 W 1018,1 14 49 0,0
11.08.2018 17:00:00 22,0 6,8 24,6 25,6 23,3 22,4 29 15 48 26 WSW 1018,0 19 30 0,0
11.08.2018 16:00:00 20,5 7,9 22,6 26,5 22,9 22,4 21 11 42 23 WSW 1018,4 46 57 0,0
11.08.2018 15:00:00 21,3 7,3 25,2 25,5 22,5 22,4 31 17 53 29 WSW 1018,8 50 53 0,0
11.08.2018 14:00:00 19,9 10,5 22,4 23,8 22,2 22,4 26 14 46 25 W 1019,0 50 8 0,0
11.08.2018 13:00:00 19,2 9,2 20,2 23,9 21,9 22,4 25 13 38 21 W 1019,0 40 8 0,0
11.08.2018 12:00:00 20,4 9,5 22,8 23,3 21,6 22,4 24 13 44 24 WSW 1019,0 40 8 0,0
11.08.2018 11:00:00 20,5 9,3 22,5 22,2 21,2 22,4 18 10 27 14 WSW 1018,7 40 21 0,0
11.08.2018 10:00:00 20,1 10,4 22,2 20,7 21,0 22,4 15 8 27 14 SW 1018,8 30 35 0,0
11.08.2018 09:00:00 17,1 12,3 17,9 18,6 20,9 22,4 10 6 17 9 S 1018,9 40 6 0,0
11.08.2018 08:00:00 16,1 12,5 17,4 17,5 21,0 22,4 10 5 18 10 SSE 1019,0 40 2 0,0
11.08.2018 07:00:00 15,0 11,7 14,6 17,0 21,2 22,4 11 6 16 9 S 1019,2 30 3 0,0
11.08.2018 06:00:00 14,2 11,4 12,8 16,8 21,4 22,4 9 5 14 8 SSE 1019,6 30 0 0,0
11.08.2018 05:00:00 14,6 10,5 13,1 16,8 21,7 22,5 10 5 21 11 SSE 1020,0 36 0 0,0
11.08.2018 04:00:00 15,0 9,9 13,4 17,0 22,0 22,5 13 7 19 10 SSE 1020,7 44 0 0,0
11.08.2018 03:00:00 14,6 9,8 12,1 17,4 22,3 22,5 9 5 15 8 SSE 1021,3 42 0 0,0
11.08.2018 02:00:00 14,5 9,8 11,4 17,9 22,7 22,5 8 4 11 6 SSE 1021,8 41 0 0,0
11.08.2018 01:00:00 14,1 11,6 10,6 18,4 23,1 22,5 5 3 9 5 SSE 1022,1 30 0 0,0
11.08.2018 00:00:00 14,4 11,1 11,0 19,1 23,5 22,5 7 4 8 4 S 1022,1 36 0 0,0
10.08.2018 23:00:00 15,7 12,0 11,5 19,9 23,9 22,5 6 3 8 4 S 1022,2 48 0 0,0
10.08.2018 22:00:00 16,6 11,1 12,9 21,0 24,3 22,5 6 3 8 4 S 1022,2 57 0 0,0
10.08.2018 21:00:00 19,1 8,9 14,4 22,4 24,6 22,5 6 3 14 7 SSW 1022,0 70 9 0,0
10.08.2018 20:00:00 20,9 9,7 20,0 24,1 24,8 22,5 10 5 24 13 W 1021,6 70 60 0,0
10.08.2018 19:00:00 22,1 8,1 22,9 25,4 24,8 22,5 17 9 27 15 WSW 1021,4 31 56 0,0
10.08.2018 18:00:00 22,2 8,9 23,9 26,1 24,7 22,5 13 7 27 14 W 1021,5 55 34 0,0

tt = temperature
td = dewpoint
tt 5cm = temperature 5cm
tt -5cm = temperature -5cm
tt -20cm = temperature -20cm
tt -100cm = temperature -100cm
ff = wind speed
fx = gusts
dd = wind direction
ppp = reduced air pressure
vv = visibility
sd = sunshine duration
rr = precipitation

Next stations